[[{"header":{"parameterUnit":"m.s-1","parameterCategory":1,"la1":30.2991,"la2":30.254,"lo1":-89.0895,"lo2":-89.0444,"dy":0.0017,"dx":0.0017,"nx":28,"ny":28,"refTime":"2026-02-25T09:00:00:Z","depth":0,"parameterNumber":2,"parameterNumberName":"U-component_of_WINDS"},"data":[0,0,0,0,0,0,0,0,0,0,0,0,0,0,0,0,0,0,0,0,0,0,0,0,0,0,0,0,0,0,0,0,0,0,0,0,0,0,0,0,0,0,0,0,0,0,0,0,0,0,0,0,0,0,0,0,0,0,-1.4765,-1.4766,0,-1.4798,-1.4799,-1.4799,-1.4818,-1.4818,-1.4818,-1.4818,-1.485,-1.4851,-1.4851,0,0,0,0,0,0,0,0,0,0,0,0,0,-1.4717,-1.4717,-1.4765,-1.4766,-1.4766,-1.4798,-1.4799,-1.4799,-1.4818,-1.4818,-1.4818,-1.4818,-1.485,-1.485,-1.4851,0,0,0,0,0,0,0,0,0,0,0,0,0,-1.4742,-1.4718,-1.4765,-1.478,-1.4781,-1.4798,-1.4799,-1.4799,-1.4818,-1.4818,-1.4818,-1.4818,-1.4849,-1.485,-1.4852,-1.4856,0,0,-1.4855,-1.4856,0,0,0,0,0,0,0,0,-1.4741,-1.4744,-1.4777,-1.4779,-1.478,-1.4804,-1.4793,-1.4818,-1.4818,-1.4804,-1.4818,-1.4819,-1.4834,-1.4837,-1.4843,-1.4858,-1.4859,-1.4855,-1.4856,-1.4856,-1.4857,0,0,0,0,0,0,0,-1.4739,-1.4743,-1.4778,-1.4777,-1.478,-1.4784,-1.4787,-1.4798,-1.4818,-1.4805,-1.4807,-1.4811,-1.4835,-1.4842,-1.4844,-1.486,-1.4855,-1.4856,-1.4857,-1.4857,-1.488,-1.488,0,0,0,0,0,0,-1.4735,-1.4741,-1.4777,-1.4779,-1.4761,-1.4784,-1.4789,-1.4796,-1.4818,-1.4821,-1.481,-1.4811,-1.484,-1.4842,-1.4845,-1.4852,-1.4856,-1.4857,-1.4858,-1.488,-1.488,-1.488,0,0,0,0,0,0,-1.4734,-1.4738,-1.4776,-1.4761,-1.4766,-1.4785,-1.4794,-1.4797,-1.4803,-1.4822,-1.4825,-1.4813,-1.484,-1.4843,-1.4853,-1.4853,-1.4858,-1.4859,-1.488,-1.488,-1.488,-1.4866,0,0,0,0,0,0,-1.4733,-1.4738,-1.474,-1.4761,-1.4767,-1.4785,-1.4794,-1.4798,-1.4806,-1.4807,-1.4825,-1.4829,-1.484,-1.4852,-1.4855,-1.4855,-1.486,-1.488,-1.488,-1.488,-1.4866,-1.4865,-1.4864,0,0,0,0,0,-1.4731,-1.4734,-1.474,-1.4745,-1.477,-1.4785,-1.4788,-1.4802,-1.4805,-1.4808,-1.482,-1.4828,-1.4853,-1.4853,-1.4856,-1.4857,-1.4881,-1.488,-1.488,-1.4867,-1.4865,-1.4864,0,0,0,0,0,0,-1.4712,-1.4737,-1.4744,-1.4754,-1.4767,-1.4788,-1.4791,-1.48,-1.4811,-1.4812,-1.4828,-1.4832,-1.4841,-1.485,-1.4849,-1.4862,-1.4868,-1.4868,-1.4856,-1.4855,-1.4854,-1.4851,-1.4861,0,0,0,0,0,-1.471,-1.472,-1.4741,-1.4748,-1.4754,-1.4772,-1.4778,-1.4788,-1.4802,-1.4807,-1.482,-1.4832,-1.4843,-1.4849,-1.486,-1.4868,-1.4872,-1.487,-1.4869,-1.4868,-1.4868,-1.4873,-1.4872,-1.488,-1.488,-1.488,0,0,-1.4704,-1.4719,-1.4724,-1.4745,-1.4756,-1.4766,-1.4776,-1.4786,-1.4793,-1.4808,-1.4819,-1.4829,-1.4844,-1.4853,-1.4857,-1.486,-1.4867,-1.4868,-1.4867,-1.4867,-1.4872,-1.4872,-1.4871,-1.4879,-1.4879,-1.4879,0,0,-1.4698,-1.4711,-1.4718,-1.4729,-1.4746,-1.4758,-1.476,-1.4779,-1.4786,-1.4798,-1.4809,-1.4818,-1.4836,-1.4846,-1.4854,-1.4853,-1.486,-1.4856,-1.485,-1.4854,-1.4854,-1.4853,-1.4853,-1.4852,-1.4856,-1.4856,-1.4856,0,-1.4688,-1.4704,-1.472,-1.473,-1.4738,-1.4754,-1.4761,-1.4771,-1.479,-1.4795,-1.4799,-1.4822,-1.4833,-1.4845,-1.4845,-1.485,-1.4852,-1.4853,-1.4853,-1.4852,-1.4852,-1.4852,-1.4851,-1.4855,-1.4855,-1.4855,-1.4855,0,-1.4692,-1.4702,-1.4706,-1.4726,-1.4735,-1.4743,-1.4759,-1.4766,-1.4776,-1.4787,-1.4798,-1.4812,-1.4826,-1.4829,-1.4838,-1.4842,-1.4844,-1.485,-1.4855,-1.485,-1.485,-1.485,-1.4854,-1.4854,-1.4854,-1.4855,0,0,-1.4674,-1.4703,-1.4704,-1.4713,-1.4734,-1.4742,-1.4751,-1.4766,-1.4771,-1.4784,-1.4792,-1.4807,-1.4813,-1.4821,-1.4831,-1.4835,-1.4833,-1.4841,-1.4841,-1.4839,-1.4839,-1.4834,-1.4834,-1.4839,-1.4839,-1.4839,-1.4838,0,-1.4672,-1.4689,-1.4704,-1.4715,-1.4726,-1.4741,-1.4748,-1.4761,-1.4772,-1.4782,-1.4793,-1.4804,-1.4811,-1.4816,-1.4821,-1.4833,-1.4834,-1.4833,-1.4846,-1.4846,-1.4841,-1.4834,-1.4829,-1.4827,-1.4838,-1.4838,-1.4838,0,-1.467,-1.4684,-1.4697,-1.4716,-1.4721,-1.4728,-1.4743,-1.4752,-1.4767,-1.4774,-1.4784,-1.4795,-1.4804,-1.4809,-1.4823,-1.4822,-1.4828,-1.4835,-1.4835,-1.4836,-1.4841,-1.4835,-1.4827,-1.4826,-1.4838,-1.4838,-1.4838,0,-1.4656,-1.4678,-1.4688,-1.4695,-1.4719,-1.4723,-1.4733,-1.4748,-1.4756,-1.4769,-1.4774,-1.4787,-1.4795,-1.4804,-1.4818,-1.482,-1.483,-1.4836,-1.4836,-1.4836,-1.4837,-1.4836,-1.4829,-1.4841,-1.4841,-1.4841,-1.4841,0,-1.4651,-1.4658,-1.4682,-1.4689,-1.4697,-1.4714,-1.4722,-1.4733,-1.4746,-1.4755,-1.4768,-1.4776,-1.4794,-1.4803,-1.4814,-1.4823,-1.4826,-1.4832,-1.4835,-1.4831,-1.483,-1.4835,-1.4835,-1.4841,-1.4841,-1.4841,-1.4841,0,-1.4637,-1.4653,-1.4666,-1.4687,-1.4693,-1.4698,-1.4716,-1.4723,-1.4734,-1.4745,-1.4748,-1.4767,-1.4779,-1.4794,-1.481,-1.4817,-1.4825,-1.483,-1.482,-1.4822,-1.4821,-1.4821,-1.4816,-1.4816,-1.4828,-1.4828,-1.4828,0,-1.4632,-1.4638,-1.4661,-1.4668,-1.4678,-1.4689,-1.4697,-1.4714,-1.4722,-1.474,-1.4744,-1.4758,-1.4769,-1.4788,-1.4802,-1.4815,-1.4819,-1.4817,-1.4821,-1.4817,-1.4819,-1.4818,-1.4819,-1.4815,-1.4815,-1.4815,-1.4815,0,-1.4622,-1.463,-1.4642,-1.4658,-1.4668,-1.468,-1.4693,-1.4698,-1.4717,-1.4726,-1.4739,-1.4748,-1.4765,-1.4778,-1.4793,-1.4802,-1.4811,-1.4814,-1.4814,-1.481,-1.4804,-1.4807,-1.4817,-1.4813,-1.4813,-1.4814,-1.4814,-1.4814,-1.4612,-1.4619,-1.4636,-1.4649,-1.4661,-1.4673,-1.468,-1.4693,-1.4705,-1.4721,-1.473,-1.4742,-1.4758,-1.4779,-1.4788,-1.4798,-1.4801,-1.4802,-1.4802,-1.4802,-1.4801,-1.4803,-1.48,-1.48,-1.48,-1.48,-1.4801,0,-1.4603,-1.4615,-1.4627,-1.4645,-1.4656,-1.4665,-1.468,-1.4687,-1.4699,-1.4712,-1.4724,-1.4739,-1.4752,-1.4767,-1.4781,-1.4786,-1.479,-1.4789,-1.4788,-1.479,-1.4797,-1.4795,-1.4785,-1.4785,-1.4785,-1.4785,-1.4785,-1.4785,-1.4599,-1.461,-1.462,-1.4637,-1.4649,-1.4662,-1.467,-1.4681,-1.4692,-1.4709,-1.472,-1.473,-1.4745,-1.476,-1.4772,-1.4776,-1.478,-1.4777,-1.4783,-1.4789,-1.479,-1.4791,-1.4789,-1.4778,-1.4778,-1.4776,-1.4776,-1.4776]},{"header":{"parameterUnit":"m.s-1","parameterCategory":1,"la1":30.2991,"la2":30.254,"lo1":-89.0895,"lo2":-89.0444,"dy":0.0017,"dx":0.0017,"nx":28,"ny":28,"refTime":"2026-02-25T09:00:00:Z","depth":0,"parameterNumber":3,"parameterNumberName":"V-component_of_WINDS"},"data":[0,0,0,0,0,0,0,0,0,0,0,0,0,0,0,0,0,0,0,0,0,0,0,0,0,0,0,0,0,0,0,0,0,0,0,0,0,0,0,0,0,0,0,0,0,0,0,0,0,0,0,0,0,0,0,0,0,0,3.6361,3.6361,0,3.6356,3.6356,3.6355,3.6332,3.6332,3.6331,3.6331,3.6325,3.6326,3.6326,0,0,0,0,0,0,0,0,0,0,0,0,0,3.6353,3.6353,3.6361,3.6361,3.6361,3.6356,3.6356,3.6355,3.6332,3.6332,3.6331,3.6331,3.6325,3.6326,3.6326,0,0,0,0,0,0,0,0,0,0,0,0,0,3.6353,3.6353,3.6361,3.6349,3.6348,3.6356,3.6356,3.6355,3.6333,3.6332,3.6331,3.633,3.6325,3.6326,3.6326,3.6346,0,0,3.6328,3.6328,0,0,0,0,0,0,0,0,3.6353,3.6353,3.6351,3.635,3.6349,3.6344,3.6351,3.6352,3.6333,3.6338,3.6331,3.633,3.6332,3.6332,3.6333,3.6345,3.6345,3.6328,3.6328,3.6328,3.6329,0,0,0,0,0,0,0,3.6353,3.6353,3.6359,3.6351,3.635,3.6344,3.6343,3.6351,3.634,3.6338,3.6336,3.6336,3.6331,3.6332,3.6332,3.6345,3.6328,3.6328,3.6329,3.6329,3.6374,3.6374,0,0,0,0,0,0,3.6355,3.6354,3.6359,3.6359,3.6349,3.6345,3.6344,3.6346,3.634,3.6338,3.6336,3.6335,3.6332,3.6332,3.6332,3.6355,3.6328,3.6329,3.6329,3.6373,3.6374,3.6375,0,0,0,0,0,0,3.6355,3.6355,3.636,3.6356,3.6356,3.6346,3.6349,3.6347,3.6347,3.6339,3.6337,3.6339,3.6331,3.6331,3.6342,3.6354,3.6329,3.633,3.6372,3.6373,3.6374,3.6401,0,0,0,0,0,0,3.6354,3.6356,3.6363,3.6356,3.6356,3.637,3.6349,3.6347,3.6348,3.6346,3.6341,3.6339,3.6331,3.6342,3.6343,3.6355,3.633,3.6371,3.6372,3.6374,3.6399,3.6403,3.6406,0,0,0,0,0,3.6354,3.637,3.6363,3.6364,3.6365,3.6371,3.6371,3.636,3.6349,3.6357,3.6351,3.6339,3.6353,3.6343,3.6344,3.6356,3.637,3.6372,3.6374,3.6397,3.6402,3.6406,0,0,0,0,0,0,3.6379,3.6369,3.6361,3.6376,3.6374,3.6367,3.6375,3.6366,3.6367,3.6365,3.6352,3.6351,3.6364,3.6361,3.6351,3.6375,3.6359,3.6362,3.6377,3.6381,3.6385,3.6386,3.633,0,0,0,0,0,3.6386,3.6391,3.6382,3.6396,3.6395,3.6386,3.6388,3.638,3.6378,3.6377,3.6372,3.6371,3.6375,3.6378,3.6381,3.6398,3.6397,3.6407,3.641,3.6413,3.6416,3.6425,3.643,3.6381,3.6381,3.6381,0,0,3.64,3.6396,3.64,3.6401,3.6399,3.6405,3.6385,3.6392,3.6397,3.6378,3.6388,3.6385,3.6382,3.6397,3.6403,3.6395,3.6429,3.6416,3.6418,3.6419,3.6428,3.6432,3.6437,3.6382,3.6382,3.6382,0,0,3.643,3.6427,3.6438,3.6437,3.6434,3.6427,3.643,3.6424,3.6421,3.6431,3.6417,3.6422,3.6429,3.6428,3.6428,3.6458,3.6448,3.6459,3.6479,3.6488,3.6492,3.6496,3.6507,3.6511,3.6462,3.6462,3.6462,0,3.6449,3.6457,3.6445,3.6454,3.6455,3.6438,3.6449,3.6448,3.6446,3.6447,3.6438,3.6447,3.6444,3.6458,3.6465,3.6466,3.6469,3.646,3.6493,3.6496,3.6499,3.651,3.6514,3.6463,3.6463,3.6463,3.6463,0,3.6481,3.6487,3.6496,3.6495,3.6497,3.6507,3.6497,3.65,3.6492,3.6486,3.6497,3.6493,3.6495,3.6498,3.649,3.6511,3.6506,3.6495,3.6479,3.6505,3.6515,3.6519,3.6465,3.6465,3.6464,3.6464,0,0,3.6527,3.6519,3.6522,3.6522,3.6517,3.6522,3.6531,3.6533,3.6536,3.6536,3.6543,3.655,3.6539,3.654,3.6532,3.654,3.6565,3.6528,3.6528,3.6535,3.6588,3.6597,3.6602,3.6557,3.6558,3.6558,3.6589,0,3.6556,3.6571,3.6561,3.6578,3.6583,3.6567,3.6575,3.6574,3.6568,3.6573,3.6567,3.6572,3.6558,3.6558,3.6565,3.656,3.6575,3.6557,3.6565,3.6565,3.6567,3.6607,3.6617,3.6646,3.6593,3.6593,3.6594,0,3.6592,3.6593,3.6611,3.6606,3.6608,3.6615,3.6616,3.662,3.6618,3.6614,3.6614,3.6604,3.6613,3.6597,3.6609,3.6597,3.66,3.6598,3.6598,3.6599,3.6582,3.661,3.6655,3.666,3.6599,3.6599,3.6599,0,3.6625,3.6631,3.6642,3.6642,3.6636,3.6642,3.6639,3.6636,3.6638,3.6639,3.664,3.6642,3.6644,3.6646,3.6636,3.6625,3.665,3.6633,3.6648,3.6648,3.6654,3.6654,3.6701,3.6654,3.6654,3.6654,3.6654,0,3.666,3.6671,3.6657,3.6664,3.6677,3.6664,3.6677,3.6673,3.6671,3.6677,3.6663,3.6669,3.6656,3.6661,3.6654,3.6665,3.6666,3.6663,3.6661,3.6665,3.6666,3.6667,3.6665,3.6655,3.6655,3.6655,3.6655,0,3.6699,3.669,3.6701,3.6694,3.6693,3.6703,3.6697,3.6703,3.6697,3.6705,3.6706,3.6697,3.6702,3.6693,3.6696,3.6692,3.6708,3.6703,3.6709,3.6708,3.6724,3.6723,3.6773,3.678,3.6728,3.6729,3.6729,0,3.6722,3.6731,3.6725,3.6728,3.6726,3.6732,3.6734,3.6721,3.6724,3.6722,3.6729,3.6733,3.6736,3.6745,3.6738,3.6741,3.6736,3.6754,3.6737,3.6741,3.6738,3.6738,3.6739,3.6758,3.6758,3.6759,3.6759,0,3.6765,3.676,3.6763,3.6765,3.6768,3.6768,3.6768,3.6772,3.6759,3.6763,3.6768,3.677,3.6774,3.6778,3.678,3.6777,3.6767,3.6765,3.6768,3.6773,3.6777,3.6776,3.672,3.6764,3.6763,3.6763,3.6763,3.6763,3.6797,3.6804,3.6801,3.6806,3.6804,3.6804,3.681,3.6805,3.6809,3.6811,3.6804,3.6811,3.6808,3.6809,3.6808,3.6813,3.6806,3.6811,3.6812,3.6814,3.6817,3.6775,3.6813,3.6813,3.6813,3.6813,3.6813,0,3.684,3.6837,3.6841,3.6841,3.6845,3.6834,3.6833,3.6837,3.6843,3.6841,3.6844,3.685,3.6854,3.6848,3.6851,3.6857,3.6852,3.6858,3.6858,3.6858,3.6823,3.682,3.6862,3.6862,3.6862,3.6862,3.6862,3.6862,3.6863,3.6874,3.6869,3.688,3.6877,3.6884,3.6884,3.6884,3.6883,3.6891,3.6894,3.689,3.6886,3.6889,3.6893,3.6891,3.6893,3.6901,3.6898,3.6865,3.6861,3.6856,3.6853,3.6901,3.6901,3.6932,3.6932,3.6933]}]]